Location: Unspecified
(40.7945°N, 0.0000°E)
Time: 06:11:06
(UTC+00:00)

A-11 Canister half - Pass Details

Date: 23 January 2021
Orbit: 1516 x 1684 km, 47.2° (Epoch: 28 February)

Event Time Altitude Azimuth Distance (km) Brightness Sun altitude
Rises 01:54:28 0° 296° (WNW) 4,669 - -59.4°
Reaches altitude 10° 01:57:30 10° 296° (WNW) 3,681 - -58.9°
Maximum altitude 02:06:48 88° 26° (NNE) 1,526 - -57.5°
Drops below altitude 10° 02:16:11 10° 118° (ESE) 3,719 - -56.0°
Exits shadow 02:16:18 10° 118° (ESE) 3,754 11.2 -55.9°
Sets 02:19:16 0° 119° (ESE) 4,719 11.8 -55.4°
